North Labrador Coast - Saglek and south: Past 24 Hour Conditions

 

Hall Beach Airport

12:00 AM EDT 19 April 2014
This table is a summary of hourly weather conditions for the past 24 hours.
Date / Time
(EDT)
Wind(knots) Conditions Visibility(km) Pressure(kPa) Air tempC) Relative humidity(%) Dew pointC) Wind Chill
19 April 2014
0:00 W 2 Clear 16 101.0 -21 81 -23 -24
18 April 2014
23:00 W 9 Clear 16 101.0 -19 83 -21 -29
22:00 WNW 7 Clear 16 101.0 -19 83 -21 -27
21:00 WNW 11 Sunny 16 101.0 -18 81 -20 -28
20:00 WNW 13 Drifting Snow 24 101.0 -16 79 -19 -26
19:00 WNW 16 Drifting Snow 19 101.0 -15 79 -18 -26
18:00 NW 16 gust 21 Drifting Snow 19 101.0 -14 79 -17 -25
17:00 NW 20 Blowing Snow 10 101.0 -14 80 -17 -26
16:00 NW 20 Blowing Snow 6 101.0 -14 80 -17 -26
15:00 NW 23 Blowing Snow 2 101.0 -15 80 -17 -27
14:00 WNW 27 Blowing Snow 3 101.0 -15 79 -18 -28
13:00 NW 26 Blowing Snow 3 101.0 -15 81 -18 -29
12:00 NW 23 gust 31 Blowing Snow 2 101.0 -16 81 -18 -29
11:00 NW 25 gust 30 Blowing Snow 2 101.0 -16 81 -19 -29
10:00 NW 29 Blowing Snow 1 100.9 -16 80 -19 -31
9:00 NW 25 gust 35 Blowing Snow 1 100.9 -17 83 -19 -31
8:00 WNW 20 gust 27 Blowing Snow 5 100.9 -17 82 -19 -30
7:00 WNW 27 gust 35 Snow 0.8 100.8 -17 83 -19 -31
6:00 NW 26 gust 32 Light Snow 1 100.8 -17 84 -19 -31
5:00 NW 23 gust 28 Light Snow 2 100.8 -17 85 -19 -31
4:00 NW 22 gust 31 Light Snow 1 100.8 -18 85 -20 -31
3:00 NW 21 gust 28 Light Snow 2 100.7 -18 85 -20 -31
2:00 NW 22 gust 27 Light Snow 2 100.6 -18 84 -20 -32
1:00 NW 21 Mist 3 100.6 -19 84 -21 -32
0:00 NW 19 Mist 10 100.6 -19 83 -22 -33
 
Map of Arctic - Eastern Arctic marine weather areas Baker Lake Airport Chesterfield Inlet Airport Coral Harbour Airport Gjoa Haven Airport Kugaaruk Airport Rankin Inlet Airport Shepherd Bay Airport Whale Cove Airport Arctic Bay Brevoort Island Qikiqtarjuaq Airport Cape Dorset Airport Cape Dyer Cape Hooper Clyde Airport Grise Fiord Airport Hall Beach Airport Igloolik Airport Iqaluit Airport Longstaff Bluff Pangnirtung Airport Pond Inlet Airport Repulse Bay Airport Resolute Airport Resolution Island Rowley Island Airport Taloyoak Airport Wager Bay Akulivik Airport Ivujivik Airport Puvirnituq Airport Kangiqsujuaq Airport Kangirsuk Airport Quaqtaq Airport Tasiujaq Airport Cape Kakkiviak Cape Kiglapait Nain Airport Saglek Cape Mercy Kimmirut Airport Aupaluk Airport Salluit Airport Kangiqsualujjuaq Airport Fort Ross
Legend: buoyBuoy land stationLand Station